EST,Max TemperatureF,Mean TemperatureF,Min TemperatureF,Max Dew PointF,MeanDew PointF,Min DewpointF,Max Humidity, Mean Humidity, Min Humidity, Max Sea Level PressureIn, Mean Sea Level PressureIn, Min Sea Level PressureIn, Max VisibilityMiles, Mean VisibilityMiles, Min VisibilityMiles, Max Wind SpeedMPH, Mean Wind SpeedMPH, Max Gust SpeedMPH,PrecipitationIn, CloudCover, Events, WindDirDegrees
2012-12-1,48,41,34,46,36,30,93,85,76,30.26,30.01,29.81,6,4,2,14,6,22,0.16,8,Rain,147
2012-12-2,52,47,41,50,43,35,96,83,70,30.10,29.91,29.79,10,5,0,12,4,16,0.05,8,Fog,266
2012-12-3,64,53,41,59,49,36,89,83,76,30.10,29.86,29.65,10,6,2,18,6,36,0.47,8,Rain,182
2012-12-4,61,46,30,55,34,16,80,64,47,30.22,29.94,29.71,10,10,8,24,12,31,T,5,,269
2012-12-5,34,30,25,22,20,16,88,71,53,30.43,30.35,30.24,10,10,8,21,7,25,T,5,Snow,340
2012-12-6,41,35,29,33,24,20,70,61,52,30.26,30.03,29.85,10,10,9,12,6,20,T,7,,181
2012-12-7,41,38,35,35,31,25,85,72,59,29.99,29.93,29.85,10,10,8,12,6,17,0.00,7,,359
2012-12-8,36,34,31,30,25,20,82,69,56,30.18,30.04,29.96,10,9,3,12,5,15,0.01,8,Snow,37
2012-12-9,33,30,26,29,25,19,92,78,63,30.23,29.97,29.72,10,6,0,17,6,25,0.10,7,Snow,72
2012-12-10,31,29,27,28,24,20,85,74,63,29.91,29.72,29.62,10,8,1,16,7,23,0.04,8,Snow,4
2012-12-11,34,28,22,27,21,16,85,68,51,30.01,29.93,29.86,10,7,2,14,6,21,T,7,Snow,194
2012-12-12,40,33,25,29,23,17,92,73,54,30.26,30.14,30.00,10,8,1,18,5,25,0.02,6,Snow,214
2012-12-13,48,38,28,30,28,25,85,64,42,30.20,30.12,30.02,10,10,7,16,7,26,0.00,4,,203
2012-12-14,39,32,25,30,27,23,92,81,70,30.25,30.19,30.11,10,9,7,9,1,10,0.00,4,,108
2012-12-15,40,36,32,36,32,28,92,81,70,30.17,29.88,29.58,10,8,2,15,7,24,0.27,7,Rain,129
2012-12-16,47,43,39,45,41,36,100,93,85,29.60,29.54,29.50,10,5,1,10,2,16,0.06,8,Rain,242
2012-12-17,41,37,32,37,34,30,92,83,73,29.69,29.65,29.61,10,9,4,13,5,15,0.02,8,Rain,240
2012-12-18,40,36,31,32,29,25,96,75,54,29.78,29.71,29.66,10,9,2,9,2,14,0.01,7,Snow,254
2012-12-19,39,34,29,33,29,27,92,78,64,30.12,29.99,29.79,10,10,8,7,1,10,T,7,,234
2012-12-20,36,34,31,34,32,28,100,85,70,30.06,29.54,29.20,10,3,1,20,10,30,1.16,8,Rain-Snow,60
2012-12-21,33,31,29,34,26,21,100,85,69,30.00,29.60,29.24,10,5,0,32,19,44,0.17,8,Fog-Snow,347
2012-12-22,31,28,25,23,21,20,81,75,69,30.07,30.01,29.90,10,10,10,22,9,29,0.00,7,,275
2012-12-23,32,28,23,23,18,16,81,70,58,30.06,29.98,29.88,10,10,10,18,8,28,0.00,7,,287
2012-12-24,27,26,24,23,20,17,88,78,68,30.09,29.99,29.93,10,7,1,8,1,9,0.02,8,Snow,227
2012-12-25,29,27,25,23,21,17,84,76,68,30.40,30.29,30.10,10,9,4,10,3,13,0.01,8,Snow,105
2012-12-26,27,25,23,18,17,15,74,69,63,30.37,30.23,30.13,10,10,9,18,12,26,T,8,Snow,55
2012-12-27,30,26,22,20,18,16,84,74,63,30.19,30.16,30.12,10,10,10,14,7,21,0.00,7,,11
2012-12-28,30,27,23,25,21,19,92,78,63,30.16,30.08,29.98,10,8,2,8,1,10,0.01,8,Snow,212
2012-12-29,29,25,20,25,21,19,92,84,75,30.05,29.96,29.91,10,8,2,10,2,15,T,8,Snow,271
2012-12-30,29,26,22,25,20,16,85,77,68,30.21,30.11,30.02,10,8,2,12,6,22,T,7,Snow,237
2012-12-31,33,30,26,26,19,11,78,71,63,30.08,29.96,29.85,10,8,2,18,9,24,T,7,Snow,282